Cortez, CO

11:05 PM MDT on July 21, 2017 (GMT -0600)
Cortez Municipal

Weather History for KCEZ - October, 2012

Change the Weather History Date:

Tuesday, October 9, 2012

  Actual Average Record
Temperature  
Mean Temperature 53 °F 51 °F  
Max Temperature 73 °F 69 °F 79 °F (1996)
Min Temperature 33 °F 34 °F 26 °F (1997)
Degree Days  
Heating Degree Days 12 14  
Month to date heating degree days 84 111  
Since 1 July heating degree days 191 283  
Cooling Degree Days 0 0  
Month to date cooling degree days 0 0  
Year to date cooling degree days 746 426  
Growing Degree Days 3 (Base 50)    
Moisture  
Dew Point 21 °F    
Average Humidity 35    
Maximum Humidity 56    
Minimum Humidity 14    
Precipitation  
Precipitation 0.00 in 0.05 in 0.45 in (2006)
Month to date precipitation 0.00 0.48  
Year to date precipitation 5.92 10.70  
Sea Level Pressure  
Sea Level Pressure 30.00 in    
Wind  
Wind Speed 6 mph (NE)    
Max Wind Speed 15 mph    
Max Gust Speed 18 mph    
Visibility 10 miles    
Events      
T = Trace of Precipitation, MM = Missing Value Source: NWS Daily Summary

Daily Weather History Graph

Daily Weather History Graph

Search for Another Location

Airport or City:

Trip Planner

Search our weather history database for the weather conditions in past years. The results will help you decide how hot, cold, wet, or windy it might be!

Date:

Astronomy

Oct. 09, 2012 Rise Set
Actual Time 7:17 AM MDT 6:45 PM MDT
Civil Twilight 6:51 AM MDT 7:11 PM MDT
Nautical Twilight 6:21 AM MDT 7:41 PM MDT
Astronomical Twilight 5:50 AM MDT 8:11 PM MDT
Moon 1:04 AM MDT (10/9) 3:07 PM MDT (10/9)
Length of Visible Light 12h 19m
Length of Day
11h 27m
Last Quarter, 36% of the Moon is Illuminated
Oct 9
Last Quarter
Oct 15
New
Oct 21
First Quarter
Oct 29
Full
Nov 6
Last Quarter

Hourly Weather History & Observations

Time (MDT) Temp. Windchill Dew Point Humidity Pressure Visibility Wind Dir Wind Speed Gust Speed Precip Events Conditions
12:53 AM 37.9 °F 34.4 °F 18.0 °F 45% 29.98 in 10.0 mi East 4.6 mph - N/A   Clear
2:53 AM 35.1 °F 31.0 °F 17.1 °F 48% 29.98 in 10.0 mi East 4.6 mph - N/A   Clear
3:53 AM 33.1 °F 28.7 °F 18.0 °F 54% 29.99 in 10.0 mi East 4.6 mph - N/A   Clear
4:53 AM 34.0 °F 28.8 °F 19.9 °F 56% 29.99 in 10.0 mi ENE 5.8 mph - N/A   Clear
5:53 AM 35.1 °F 31.0 °F 21.0 °F 57% 30.00 in 10.0 mi East 4.6 mph - N/A   Clear
6:53 AM 35.1 °F 30.1 °F 19.9 °F 54% 30.04 in 10.0 mi ENE 5.8 mph - N/A   Clear
7:53 AM 36.0 °F 32.1 °F 19.9 °F 52% 30.07 in 10.0 mi ENE 4.6 mph - N/A   Clear
8:53 AM 46.9 °F - 21.9 °F 37% 30.07 in 10.0 mi ENE 4.6 mph - N/A   Clear
9:53 AM 55.9 °F - 23.0 °F 28% 30.04 in 10.0 mi Calm Calm - N/A   Clear
10:53 AM 64.0 °F - 21.9 °F 20% 30.01 in 10.0 mi West 5.8 mph - N/A   Clear
11:53 AM 68.0 °F - 24.1 °F 19% 30.01 in 10.0 mi SSW 5.8 mph - N/A   Clear
12:53 PM 68.0 °F - 21.9 °F 17% 29.99 in 10.0 mi WNW 12.7 mph - N/A   Clear
1:53 PM 71.1 °F - 19.9 °F 14% 29.97 in 10.0 mi WNW 11.5 mph - N/A   Clear
2:53 PM 72.0 °F - 19.0 °F 13% 29.96 in 10.0 mi West 9.2 mph - N/A   Clear
3:53 PM 73.0 °F - 21.0 °F 14% 29.95 in 10.0 mi West 12.7 mph - N/A   Clear
4:53 PM 72.0 °F - 21.9 °F 15% 29.95 in 10.0 mi WNW 8.1 mph - N/A   Clear
5:53 PM 70.0 °F - 21.9 °F 16% 29.95 in 10.0 mi WNW 10.4 mph - N/A   Clear
6:53 PM 63.0 °F - 21.9 °F 21% 29.98 in 10.0 mi West 3.5 mph - N/A   Clear
7:53 PM 54.0 °F - 23.0 °F 30% 30.02 in 10.0 mi ENE 3.5 mph - N/A   Clear
8:53 PM 48.9 °F - 24.1 °F 38% 30.02 in 10.0 mi ENE 9.2 mph - N/A   Clear
9:53 PM 46.9 °F - 21.9 °F 37% 30.02 in 10.0 mi ENE 6.9 mph - N/A   Clear
10:53 PM 45.0 °F 41.8 °F 23.0 °F 42% 30.01 in 10.0 mi ENE 5.8 mph - N/A   Clear
11:53 PM 42.1 °F - 24.1 °F 49% 30.01 in 10.0 mi Calm Calm - N/A   Clear